{"data":{"norad_id":40965,"intl_designator":"2015-058B","name":"AEROCUBE 5C","alt_names":[],"object_type":"PAYLOAD","status":"ACTIVE","operator":null,"country":"US","launch_date":"2015-10-08","launch_site_code":"AFWTR","launch_vehicle":null,"mission":null,"orbit_class":"UNKNOWN","rcs_meters":null,"size_class":null,"mass_kg":null,"dimensions":null,"purposes":["tech_demo"],"wikipedia_slug":null,"has_3d_model":false,"image_url":null,"decayed_at":null,"tle_current":{"epoch":"2026-09-20T04:04:55.596288Z","epoch_age_seconds":46621,"freshness":"FRESH","line1":"1 40965U 15058B   26263.17008792  .00001084  00000+0  10430-3 0  9999","line2":"2 40965  64.7672 326.9880 0138296  27.4892 333.3446 14.91877397379826","mean_motion":14.91877397,"eccentricity":0.0138296,"inclination_deg":64.7672,"raan_deg":326.988,"arg_perigee_deg":27.4892,"mean_anomaly_deg":333.3446,"bstar":0.0001043,"rev_number":37982,"period_min":96.522676923431,"perigee_km":495.68658001616,"apogee_km":688.47725915678,"semimajor_km":6970.2189195865,"source":"CELESTRAK","updated_at":"2026-09-20T09:00:48.028157Z"}}}